Year,Month,Day,Hour,Minute,Value (Times are PST for temperature in C)
2015,04,09,00,00,6.90
2015,04,09,00,01,6.90
2015,04,09,00,02,6.80
2015,04,09,00,03,6.80
2015,04,09,00,04,6.80
2015,04,09,00,05,6.80
2015,04,09,00,06,6.80
2015,04,09,00,07,6.70
2015,04,09,00,08,6.80
2015,04,09,00,09,6.80
2015,04,09,00,10,6.80
2015,04,09,00,11,6.80
2015,04,09,00,12,6.80
2015,04,09,00,13,6.70
2015,04,09,00,14,6.70
2015,04,09,00,15,6.70
2015,04,09,00,16,6.60
2015,04,09,00,17,6.60
2015,04,09,00,18,6.60
2015,04,09,00,19,6.50
2015,04,09,00,20,6.50
2015,04,09,00,21,6.40
2015,04,09,00,22,6.40
2015,04,09,00,23,6.40
2015,04,09,00,24,6.40
2015,04,09,00,25,6.40
2015,04,09,00,26,6.30
2015,04,09,00,27,6.30
2015,04,09,00,28,6.30
2015,04,09,00,29,6.30
2015,04,09,00,30,6.30
2015,04,09,00,31,6.30
2015,04,09,00,32,6.20
2015,04,09,00,33,6.20
2015,04,09,00,34,6.20
2015,04,09,00,35,6.20
2015,04,09,00,36,6.20
2015,04,09,00,37,6.20
2015,04,09,00,38,6.30
2015,04,09,00,39,6.30
2015,04,09,00,40,6.30
2015,04,09,00,41,6.30
2015,04,09,00,42,6.30
2015,04,09,00,43,6.30
2015,04,09,00,44,6.30
2015,04,09,00,45,6.30
2015,04,09,00,46,6.30
2015,04,09,00,47,6.30
2015,04,09,00,48,6.30
2015,04,09,00,49,6.30
2015,04,09,00,50,6.20
2015,04,09,00,51,6.10
2015,04,09,00,52,6.00
2015,04,09,00,53,5.90
2015,04,09,00,54,5.80
2015,04,09,00,55,5.80
2015,04,09,00,56,5.70
2015,04,09,00,57,5.70
2015,04,09,00,58,5.60
2015,04,09,00,59,5.60
2015,04,09,01,00,5.60
2015,04,09,01,01,5.60
2015,04,09,01,02,5.50
2015,04,09,01,03,5.50
2015,04,09,01,04,5.50
2015,04,09,01,05,5.40
2015,04,09,01,06,5.40
2015,04,09,01,07,5.30
2015,04,09,01,08,5.30
2015,04,09,01,09,5.30
2015,04,09,01,10,5.30
2015,04,09,01,11,5.20
2015,04,09,01,12,5.20
2015,04,09,01,13,5.20
2015,04,09,01,14,5.20
2015,04,09,01,15,5.20
2015,04,09,01,16,5.10
2015,04,09,01,17,5.10
2015,04,09,01,18,5.10
2015,04,09,01,19,5.10
2015,04,09,01,20,5.10
2015,04,09,01,21,5.00
2015,04,09,01,22,5.00
2015,04,09,01,23,5.00
2015,04,09,01,24,4.90
2015,04,09,01,25,4.90
2015,04,09,01,26,4.80
2015,04,09,01,27,4.80
2015,04,09,01,28,4.80
2015,04,09,01,29,4.80
2015,04,09,01,30,4.70
2015,04,09,01,31,4.70
2015,04,09,01,32,4.70
2015,04,09,01,33,4.70
2015,04,09,01,34,4.70
2015,04,09,01,35,4.60
2015,04,09,01,36,4.60
2015,04,09,01,37,4.60
2015,04,09,01,38,4.50
2015,04,09,01,39,4.50
2015,04,09,01,40,4.50
2015,04,09,01,41,4.40
2015,04,09,01,42,4.40
2015,04,09,01,43,4.40
2015,04,09,01,44,4.40
2015,04,09,01,45,4.40
2015,04,09,01,46,4.40
2015,04,09,01,47,4.40
2015,04,09,01,48,4.40
2015,04,09,01,49,4.40
2015,04,09,01,50,4.40
2015,04,09,01,51,4.40
2015,04,09,01,52,4.40
2015,04,09,01,53,4.30
2015,04,09,01,54,4.30
2015,04,09,01,55,4.30
2015,04,09,01,56,4.30
2015,04,09,01,57,4.20
2015,04,09,01,58,4.20
2015,04,09,01,59,4.20
2015,04,09,02,00,4.20
2015,04,09,02,01,4.30
2015,04,09,02,02,4.20
2015,04,09,02,03,4.20
2015,04,09,02,04,4.20
2015,04,09,02,05,4.20
2015,04,09,02,06,4.20
2015,04,09,02,07,4.20
2015,04,09,02,08,4.20
2015,04,09,02,09,4.20
2015,04,09,02,10,4.20
2015,04,09,02,11,4.20
2015,04,09,02,12,4.10
2015,04,09,02,13,4.10
2015,04,09,02,14,4.10
2015,04,09,02,15,4.10
2015,04,09,02,16,4.10
2015,04,09,02,17,4.10
2015,04,09,02,18,4.10
2015,04,09,02,19,4.10
2015,04,09,02,20,4.10
2015,04,09,02,21,4.10
2015,04,09,02,22,4.10
2015,04,09,02,23,4.00
2015,04,09,02,24,4.00
2015,04,09,02,25,4.00
2015,04,09,02,26,4.00
2015,04,09,02,27,3.90
2015,04,09,02,28,3.90
2015,04,09,02,29,3.90
2015,04,09,02,30,3.90
2015,04,09,02,31,3.80
2015,04,09,02,32,3.80
2015,04,09,02,33,3.80
2015,04,09,02,34,3.70
2015,04,09,02,35,3.70
2015,04,09,02,36,3.70
2015,04,09,02,37,3.70
2015,04,09,02,38,3.70
2015,04,09,02,39,3.60
2015,04,09,02,40,3.60
2015,04,09,02,41,3.60
2015,04,09,02,42,3.50
2015,04,09,02,43,3.50
2015,04,09,02,44,3.50
2015,04,09,02,45,3.50
2015,04,09,02,46,3.40
2015,04,09,02,47,3.40
2015,04,09,02,48,3.40
2015,04,09,02,49,3.40
2015,04,09,02,50,3.40
2015,04,09,02,51,3.30
2015,04,09,02,52,3.30
2015,04,09,02,53,3.30
2015,04,09,02,54,3.30
2015,04,09,02,55,3.30
2015,04,09,02,56,3.20
2015,04,09,02,57,3.20
2015,04,09,02,58,3.20
2015,04,09,02,59,3.20
2015,04,09,03,00,3.20
2015,04,09,03,01,3.20
2015,04,09,03,02,3.20
2015,04,09,03,03,3.10
2015,04,09,03,04,3.10
2015,04,09,03,05,3.10
2015,04,09,03,06,3.10
2015,04,09,03,07,3.10
2015,04,09,03,08,3.00
2015,04,09,03,09,3.00
2015,04,09,03,10,3.00
2015,04,09,03,11,3.00
2015,04,09,03,12,2.90
2015,04,09,03,13,2.90
2015,04,09,03,14,2.90
2015,04,09,03,15,2.90
2015,04,09,03,16,2.80
2015,04,09,03,17,2.80
2015,04,09,03,18,2.80
2015,04,09,03,19,2.80
2015,04,09,03,20,2.80
2015,04,09,03,21,2.80
2015,04,09,03,22,2.80
2015,04,09,03,23,2.80
2015,04,09,03,24,2.80
2015,04,09,03,25,2.80
2015,04,09,03,26,2.80
2015,04,09,03,27,2.80
2015,04,09,03,28,2.70
2015,04,09,03,29,2.70
2015,04,09,03,30,2.70
2015,04,09,03,31,2.70
2015,04,09,03,32,2.70
2015,04,09,03,33,2.70
2015,04,09,03,34,2.70
2015,04,09,03,35,2.60
2015,04,09,03,36,2.60
2015,04,09,03,37,2.60
2015,04,09,03,38,2.60
2015,04,09,03,39,2.50
2015,04,09,03,40,2.50
2015,04,09,03,41,2.50
2015,04,09,03,42,2.50
2015,04,09,03,43,2.40
2015,04,09,03,44,2.40
2015,04,09,03,45,2.40
2015,04,09,03,46,2.40
2015,04,09,03,47,2.30
2015,04,09,03,48,2.30
2015,04,09,03,49,2.30
2015,04,09,03,50,2.30
2015,04,09,03,51,2.30
2015,04,09,03,52,2.30
2015,04,09,03,53,2.20
2015,04,09,03,54,2.20
2015,04,09,03,55,2.20
2015,04,09,03,56,2.20
2015,04,09,03,57,2.20
2015,04,09,03,58,2.20
2015,04,09,03,59,2.20
2015,04,09,04,00,2.10
2015,04,09,04,01,2.10
2015,04,09,04,02,2.10
2015,04,09,04,03,2.10
2015,04,09,04,04,2.10
2015,04,09,04,05,2.10
2015,04,09,04,06,2.10
2015,04,09,04,07,2.10
2015,04,09,04,08,2.00
2015,04,09,04,09,2.00
2015,04,09,04,10,2.00
2015,04,09,04,11,2.00
2015,04,09,04,12,2.00
2015,04,09,04,13,2.00
2015,04,09,04,14,2.00
2015,04,09,04,15,2.00
2015,04,09,04,16,2.10
2015,04,09,04,17,2.10
2015,04,09,04,18,2.10
2015,04,09,04,19,2.10
2015,04,09,04,20,2.10
2015,04,09,04,21,2.10
2015,04,09,04,22,2.10
2015,04,09,04,23,2.10
2015,04,09,04,24,2.10
2015,04,09,04,25,2.10
2015,04,09,04,26,2.10
2015,04,09,04,27,2.10
2015,04,09,04,28,2.10
2015,04,09,05,01,1.70
2015,04,09,05,02,1.70
2015,04,09,05,03,1.70
2015,04,09,05,04,1.60
2015,04,09,05,05,1.70
2015,04,09,05,06,1.60
2015,04,09,05,07,1.60
2015,04,09,05,08,1.60
2015,04,09,05,09,1.60
2015,04,09,05,10,1.50
2015,04,09,05,11,1.50
2015,04,09,05,12,1.50
2015,04,09,05,13,1.40
2015,04,09,05,14,1.40
2015,04,09,05,15,1.40
2015,04,09,05,16,1.40
2015,04,09,05,17,1.40
2015,04,09,05,18,1.40
2015,04,09,05,19,1.40
2015,04,09,05,20,1.40
2015,04,09,05,21,1.30
2015,04,09,05,22,1.30
2015,04,09,05,23,1.30
2015,04,09,05,24,1.30
2015,04,09,05,25,1.30
2015,04,09,05,26,1.30
2015,04,09,05,27,1.30
2015,04,09,05,28,1.30
2015,04,09,05,29,1.30
2015,04,09,05,30,1.20
2015,04,09,05,31,1.20
2015,04,09,05,32,1.20
2015,04,09,05,33,1.20
2015,04,09,05,34,1.20
2015,04,09,05,35,1.20
2015,04,09,05,36,1.20
2015,04,09,05,37,1.20
2015,04,09,05,38,1.20
2015,04,09,05,39,1.20
2015,04,09,05,40,1.20
2015,04,09,05,41,1.20
2015,04,09,05,42,1.20
2015,04,09,05,43,1.20
2015,04,09,05,44,1.20
2015,04,09,05,45,1.10
2015,04,09,05,46,1.10
2015,04,09,05,47,1.10
2015,04,09,05,48,1.10
2015,04,09,05,49,1.10
2015,04,09,05,50,1.10
2015,04,09,05,51,1.10
2015,04,09,05,52,1.10
2015,04,09,05,53,1.10
2015,04,09,05,54,1.10
2015,04,09,05,55,1.10
2015,04,09,05,56,1.10
2015,04,09,05,57,1.10
2015,04,09,05,58,1.10
2015,04,09,05,59,1.00
2015,04,09,06,00,1.00
2015,04,09,06,01,1.00
2015,04,09,06,02,1.00
2015,04,09,06,03,1.00
2015,04,09,06,04,1.00
2015,04,09,06,05,0.90
2015,04,09,06,06,1.00
2015,04,09,06,07,0.90
2015,04,09,06,08,0.90
2015,04,09,06,09,0.90
2015,04,09,06,10,0.90
2015,04,09,06,11,0.90
2015,04,09,06,12,0.90
2015,04,09,06,13,0.90
2015,04,09,06,14,0.90
2015,04,09,06,15,0.80
2015,04,09,06,16,0.80
2015,04,09,06,17,0.80
2015,04,09,06,18,0.80
2015,04,09,06,19,0.80
2015,04,09,06,20,0.80
2015,04,09,06,21,0.80
2015,04,09,06,22,0.80
2015,04,09,06,23,0.80
2015,04,09,06,24,0.80
2015,04,09,06,25,0.80
2015,04,09,06,26,0.80
2015,04,09,06,27,0.80
2015,04,09,06,28,0.80
2015,04,09,06,29,0.80
2015,04,09,06,30,0.70
2015,04,09,06,31,0.70
2015,04,09,06,32,0.70
2015,04,09,06,33,0.70
2015,04,09,06,34,0.70
2015,04,09,06,35,0.70
2015,04,09,06,36,0.70
2015,04,09,06,37,0.70
2015,04,09,06,38,0.60
2015,04,09,06,39,0.60
2015,04,09,06,40,0.60
2015,04,09,06,41,0.60
2015,04,09,06,42,0.60
2015,04,09,06,43,0.60
2015,04,09,06,44,0.60
2015,04,09,06,45,0.60
2015,04,09,06,46,0.60
2015,04,09,06,47,0.60
2015,04,09,06,48,0.60
2015,04,09,06,49,0.60
2015,04,09,06,50,0.60
2015,04,09,06,51,0.60
2015,04,09,06,52,0.60
2015,04,09,06,53,0.50
2015,04,09,06,54,0.50
2015,04,09,06,55,0.50
2015,04,09,06,56,0.50
2015,04,09,06,57,0.50
2015,04,09,06,58,0.50
2015,04,09,06,59,0.50
2015,04,09,07,00,0.50
2015,04,09,07,01,0.50
2015,04,09,07,02,0.50
2015,04,09,07,03,0.50
2015,04,09,07,04,0.50
2015,04,09,07,05,0.60
2015,04,09,07,06,0.60
2015,04,09,07,07,0.60
2015,04,09,07,08,0.60
2015,04,09,07,09,0.60
2015,04,09,07,10,0.60
2015,04,09,07,11,0.60
2015,04,09,07,12,0.60
2015,04,09,07,13,0.60
2015,04,09,07,14,0.50
2015,04,09,07,15,0.50
2015,04,09,07,16,0.50
2015,04,09,07,17,0.50
2015,04,09,07,18,0.50
2015,04,09,07,19,0.50
2015,04,09,07,20,0.50
2015,04,09,07,21,0.60
2015,04,09,07,22,0.60
2015,04,09,07,23,0.60
2015,04,09,07,24,0.60
2015,04,09,07,25,0.60
2015,04,09,07,26,0.60
2015,04,09,07,27,0.60
2015,04,09,07,28,0.60
2015,04,09,07,29,0.70
2015,04,09,07,30,0.70
2015,04,09,07,31,0.70
2015,04,09,07,32,0.70
2015,04,09,07,33,0.70
2015,04,09,07,34,0.80
2015,04,09,07,35,0.80
2015,04,09,07,36,0.80
2015,04,09,07,37,0.90
2015,04,09,07,38,0.90
2015,04,09,07,39,1.00
2015,04,09,07,40,1.00
2015,04,09,07,41,1.10
2015,04,09,07,42,1.10
2015,04,09,07,43,1.20
2015,04,09,07,44,1.20
2015,04,09,07,45,1.30
2015,04,09,07,46,1.30
2015,04,09,07,47,1.40
2015,04,09,07,48,1.40
2015,04,09,07,49,1.50
2015,04,09,07,50,1.50
2015,04,09,07,51,1.50
2015,04,09,07,52,1.50
2015,04,09,07,53,1.50
2015,04,09,07,54,1.50
2015,04,09,07,55,1.50
2015,04,09,07,56,1.50
2015,04,09,07,57,1.50
2015,04,09,07,58,1.50
2015,04,09,07,59,1.50
2015,04,09,08,00,1.50
2015,04,09,08,01,1.60
2015,04,09,08,02,1.60
2015,04,09,08,03,1.60
2015,04,09,08,04,1.60
2015,04,09,08,05,1.60
2015,04,09,08,06,1.60
2015,04,09,08,07,1.60
2015,04,09,08,08,1.60
2015,04,09,08,09,1.70
2015,04,09,08,10,1.80
2015,04,09,08,11,1.80
2015,04,09,08,12,1.80
2015,04,09,08,13,1.80
2015,04,09,08,14,1.90
2015,04,09,08,15,1.90
2015,04,09,08,16,1.90
2015,04,09,08,17,1.90
2015,04,09,08,18,1.90
2015,04,09,08,19,1.90
2015,04,09,08,20,1.90
2015,04,09,08,21,1.90
2015,04,09,08,22,2.00
2015,04,09,08,23,1.90
2015,04,09,08,24,2.00
2015,04,09,08,25,2.00
2015,04,09,08,26,2.00
2015,04,09,08,27,2.00
2015,04,09,08,28,2.00
2015,04,09,08,29,2.00
2015,04,09,08,30,2.10
2015,04,09,08,31,2.10
2015,04,09,08,32,2.10
2015,04,09,08,33,2.10
2015,04,09,08,34,2.20
2015,04,09,08,35,2.20
2015,04,09,08,36,2.20
2015,04,09,08,37,2.30
2015,04,09,08,38,2.30
2015,04,09,08,39,2.30
2015,04,09,08,40,2.40
2015,04,09,08,41,2.40
2015,04,09,08,42,2.50
2015,04,09,08,43,2.50
2015,04,09,08,44,2.60
2015,04,09,08,45,2.60
2015,04,09,08,46,2.60
2015,04,09,08,47,2.70
2015,04,09,08,48,2.70
2015,04,09,08,49,2.70
2015,04,09,08,50,2.80
2015,04,09,08,51,2.80
2015,04,09,08,52,2.90
2015,04,09,08,53,3.00
2015,04,09,08,54,3.00
2015,04,09,08,55,3.10
2015,04,09,08,56,3.20
2015,04,09,08,57,3.30
2015,04,09,08,58,3.30
2015,04,09,08,59,3.40
2015,04,09,09,00,3.40
2015,04,09,09,01,3.40
2015,04,09,09,02,3.40
2015,04,09,09,03,3.50
2015,04,09,09,04,3.50
2015,04,09,09,05,3.50
2015,04,09,09,06,3.60
2015,04,09,09,07,3.60
2015,04,09,09,08,3.60
2015,04,09,09,09,3.70
2015,04,09,09,10,3.70
2015,04,09,09,11,3.80
2015,04,09,09,12,3.80
2015,04,09,09,13,3.90
2015,04,09,09,14,3.90
2015,04,09,09,15,3.90
2015,04,09,09,16,3.90
2015,04,09,09,17,3.90
2015,04,09,09,18,4.00
2015,04,09,09,19,4.00
2015,04,09,09,20,4.10
2015,04,09,09,21,4.10
2015,04,09,09,22,4.10
2015,04,09,09,23,4.20
2015,04,09,09,24,4.30
2015,04,09,09,25,4.40
2015,04,09,09,26,4.40
2015,04,09,09,27,4.40
2015,04,09,09,28,4.40
2015,04,09,09,29,4.40
2015,04,09,09,30,4.40
2015,04,09,09,31,4.50
2015,04,09,09,32,4.50
2015,04,09,09,33,4.50
2015,04,09,09,34,4.60
2015,04,09,09,35,4.60
2015,04,09,09,36,4.70
2015,04,09,09,37,4.70
2015,04,09,09,38,4.70
2015,04,09,09,39,4.80
2015,04,09,09,40,4.90
2015,04,09,09,41,5.00
2015,04,09,09,42,5.10
2015,04,09,09,43,5.30
2015,04,09,09,44,5.50
2015,04,09,09,45,5.60
2015,04,09,09,46,5.80
2015,04,09,09,47,5.90
2015,04,09,09,48,6.00
2015,04,09,09,49,6.10
2015,04,09,09,50,6.20
2015,04,09,09,51,6.30
2015,04,09,09,52,6.40
2015,04,09,09,53,6.40
2015,04,09,09,54,6.50
2015,04,09,09,55,6.60
2015,04,09,09,56,6.60
2015,04,09,09,57,6.70
2015,04,09,09,58,6.80
2015,04,09,09,59,6.80
2015,04,09,10,00,6.90
2015,04,09,10,01,6.90
2015,04,09,10,02,6.90
2015,04,09,10,03,6.90
2015,04,09,10,04,6.90
2015,04,09,10,05,6.90
2015,04,09,10,06,7.00
2015,04,09,10,07,7.00
2015,04,09,10,08,7.00
2015,04,09,10,09,7.00
2015,04,09,10,10,7.00
2015,04,09,10,11,7.10
2015,04,09,10,12,7.10
2015,04,09,10,13,7.10
2015,04,09,10,14,7.20
2015,04,09,10,15,7.30
2015,04,09,10,16,7.40
2015,04,09,10,17,7.50
2015,04,09,10,18,7.60
2015,04,09,10,19,7.70
2015,04,09,10,20,7.70
2015,04,09,10,21,7.80
2015,04,09,10,22,7.80
2015,04,09,10,23,7.90
2015,04,09,10,24,8.00
2015,04,09,10,25,8.10
2015,04,09,10,26,8.10
2015,04,09,10,27,8.20
2015,04,09,10,28,8.30
2015,04,09,10,29,8.40
2015,04,09,10,30,8.40
2015,04,09,10,31,8.40
2015,04,09,10,32,8.50
2015,04,09,10,33,8.60
2015,04,09,10,34,8.70
2015,04,09,10,35,8.70
2015,04,09,10,36,8.80
2015,04,09,10,37,8.90
2015,04,09,10,38,8.90
2015,04,09,10,39,9.00
2015,04,09,10,40,9.10
2015,04,09,10,41,9.20
2015,04,09,10,42,9.30
2015,04,09,10,43,9.40
2015,04,09,10,44,9.50
2015,04,09,10,45,9.50
2015,04,09,10,46,9.50
2015,04,09,10,47,9.40
2015,04,09,10,48,9.30
2015,04,09,10,49,9.30
2015,04,09,10,50,9.30
2015,04,09,10,51,9.30
2015,04,09,10,52,9.30
2015,04,09,10,53,9.30
2015,04,09,10,54,9.30
2015,04,09,10,55,9.30
2015,04,09,10,56,9.30
2015,04,09,10,57,9.30
2015,04,09,10,58,9.40
2015,04,09,10,59,9.50
2015,04,09,11,00,9.60
2015,04,09,11,01,9.70
2015,04,09,11,02,9.80
2015,04,09,11,03,9.90
2015,04,09,11,04,9.90
2015,04,09,11,05,9.90
2015,04,09,11,06,10.00
2015,04,09,11,07,10.10
2015,04,09,11,08,10.20
2015,04,09,11,09,10.30
2015,04,09,11,10,10.30
2015,04,09,11,11,10.30
2015,04,09,11,12,10.40
2015,04,09,11,13,10.40
2015,04,09,11,14,10.40
2015,04,09,11,15,10.40
2015,04,09,11,16,10.50
2015,04,09,11,17,10.60
2015,04,09,11,18,10.60
2015,04,09,11,19,10.60
2015,04,09,11,20,10.70
2015,04,09,11,21,10.70
2015,04,09,11,22,10.70
2015,04,09,11,23,10.70
2015,04,09,11,24,10.70
2015,04,09,11,25,10.80
2015,04,09,11,26,10.80
2015,04,09,11,27,10.80
2015,04,09,11,28,10.80
2015,04,09,11,29,10.70
2015,04,09,11,30,10.80
2015,04,09,11,31,10.80
2015,04,09,11,32,10.80
2015,04,09,11,33,10.80
2015,04,09,11,34,10.70
2015,04,09,11,35,10.70
2015,04,09,11,36,10.70
2015,04,09,11,37,10.80
2015,04,09,11,38,10.90
2015,04,09,11,39,10.90
2015,04,09,11,40,11.00
2015,04,09,11,41,11.10
2015,04,09,11,42,11.20
2015,04,09,11,43,11.30
2015,04,09,11,44,11.40
2015,04,09,11,45,11.50
2015,04,09,11,46,11.50
2015,04,09,11,47,11.50
2015,04,09,11,48,11.40
2015,04,09,11,49,11.40
2015,04,09,11,50,11.40
2015,04,09,11,51,11.50
2015,04,09,11,52,11.50
2015,04,09,11,53,11.50
2015,04,09,11,54,11.60
2015,04,09,11,55,11.70
2015,04,09,11,56,11.70
2015,04,09,11,57,11.80
2015,04,09,11,58,11.80
2015,04,09,11,59,11.90
2015,04,09,12,00,11.90
2015,04,09,12,01,12.00
2015,04,09,12,02,12.00
2015,04,09,12,03,12.10
2015,04,09,12,04,12.10
2015,04,09,12,05,12.20
2015,04,09,12,06,12.20
2015,04,09,12,07,12.20
2015,04,09,12,08,12.20
2015,04,09,12,09,12.30
2015,04,09,12,10,12.40
2015,04,09,12,11,12.50
2015,04,09,12,12,12.60
2015,04,09,12,13,12.80
2015,04,09,12,14,12.90
2015,04,09,12,15,12.90
2015,04,09,12,16,12.90
2015,04,09,12,17,12.90
2015,04,09,12,18,12.90
2015,04,09,12,19,12.90
2015,04,09,12,20,13.00
2015,04,09,12,21,13.00
2015,04,09,12,22,13.10
2015,04,09,12,23,13.20
2015,04,09,12,24,13.30
2015,04,09,12,25,13.40
2015,04,09,12,26,13.50
2015,04,09,12,27,13.50
2015,04,09,12,28,13.50
2015,04,09,12,29,13.50
2015,04,09,12,30,13.50
2015,04,09,12,31,13.60
2015,04,09,12,32,13.60
2015,04,09,12,33,13.60
2015,04,09,12,34,13.60
2015,04,09,12,35,13.60
2015,04,09,12,36,13.70
2015,04,09,12,37,13.80
2015,04,09,12,38,13.80
2015,04,09,12,39,13.80
2015,04,09,12,40,13.80
2015,04,09,12,41,13.80
2015,04,09,12,42,13.90
2015,04,09,12,43,14.00
2015,04,09,12,44,14.10
2015,04,09,12,45,14.20
2015,04,09,12,46,14.30
2015,04,09,12,47,14.40
2015,04,09,12,48,14.40
2015,04,09,12,49,14.40
2015,04,09,12,50,14.40
2015,04,09,12,51,14.50
2015,04,09,12,52,14.60
2015,04,09,12,53,14.60
2015,04,09,12,54,14.70
2015,04,09,12,55,14.70
2015,04,09,12,56,14.80
2015,04,09,12,57,14.80
2015,04,09,12,58,14.80
2015,04,09,12,59,15.10
2015,04,09,13,00,15.10
2015,04,09,13,01,15.20
2015,04,09,13,02,15.20
2015,04,09,13,03,15.30
2015,04,09,13,04,15.40
2015,04,09,13,05,15.40
2015,04,09,13,06,15.40
2015,04,09,13,07,15.40
2015,04,09,13,08,15.30
2015,04,09,13,09,15.30
2015,04,09,13,10,15.30
2015,04,09,13,11,15.30
2015,04,09,13,12,15.30
2015,04,09,13,13,15.30
2015,04,09,13,14,15.30
2015,04,09,13,15,15.40
2015,04,09,13,16,15.50
2015,04,09,13,17,15.60
2015,04,09,13,18,15.70
2015,04,09,13,19,15.80
2015,04,09,13,20,16.00
2015,04,09,13,21,16.10
2015,04,09,13,22,16.30
2015,04,09,13,23,16.30
2015,04,09,13,24,16.30
2015,04,09,13,25,16.30
2015,04,09,13,26,16.30
2015,04,09,13,27,16.20
2015,04,09,13,28,16.20
2015,04,09,13,29,16.20
2015,04,09,13,30,16.30
2015,04,09,13,31,16.30
2015,04,09,13,32,16.30
2015,04,09,13,33,16.30
2015,04,09,13,34,16.20
2015,04,09,13,35,16.30
2015,04,09,13,36,16.30
2015,04,09,13,37,16.30
2015,04,09,13,38,16.20
2015,04,09,13,39,16.20
2015,04,09,13,40,16.30
2015,04,09,13,41,16.30
2015,04,09,13,42,16.40
2015,04,09,13,43,16.40
2015,04,09,13,44,16.50
2015,04,09,13,45,16.60
2015,04,09,13,46,16.60
2015,04,09,13,47,16.60
2015,04,09,13,48,16.60
2015,04,09,13,49,16.70
2015,04,09,13,50,16.80
2015,04,09,13,51,16.80
2015,04,09,13,52,16.90
2015,04,09,13,53,17.00
2015,04,09,13,54,17.00
2015,04,09,13,55,17.10
2015,04,09,13,56,17.10
2015,04,09,13,57,17.10
2015,04,09,13,58,17.20
2015,04,09,13,59,17.30
2015,04,09,14,00,17.30
2015,04,09,14,01,17.30
2015,04,09,14,02,17.30
2015,04,09,14,03,17.30
2015,04,09,14,04,17.30
2015,04,09,14,05,17.20
2015,04,09,14,06,17.10
2015,04,09,14,07,17.10
2015,04,09,14,08,17.00
2015,04,09,14,09,16.90
2015,04,09,14,10,16.90
2015,04,09,14,11,16.90
2015,04,09,14,12,17.00
2015,04,09,14,13,17.10
2015,04,09,14,14,17.20
2015,04,09,14,15,17.20
2015,04,09,14,16,17.30
2015,04,09,14,17,17.30
2015,04,09,14,18,17.40
2015,04,09,14,19,17.40
2015,04,09,14,20,17.40
2015,04,09,14,21,17.50
2015,04,09,14,22,17.60
2015,04,09,14,23,17.70
2015,04,09,14,24,17.80
2015,04,09,14,25,17.80
2015,04,09,14,26,17.80
2015,04,09,14,27,17.80
2015,04,09,14,28,17.80
2015,04,09,14,29,17.70
2015,04,09,14,30,17.60
2015,04,09,14,31,17.50
2015,04,09,14,32,17.50
2015,04,09,14,33,17.40
2015,04,09,14,34,17.30
2015,04,09,14,35,17.40
2015,04,09,14,36,17.40
2015,04,09,14,37,17.50
2015,04,09,14,38,17.60
2015,04,09,14,39,17.70
2015,04,09,14,40,17.70
2015,04,09,14,41,17.70
2015,04,09,14,42,17.80
2015,04,09,14,43,17.80
2015,04,09,14,44,17.80
2015,04,09,14,45,17.80
2015,04,09,14,46,17.80
2015,04,09,14,47,17.80
2015,04,09,14,48,17.80
2015,04,09,14,49,17.80
2015,04,09,14,50,17.80
2015,04,09,14,51,17.80
2015,04,09,14,52,17.80
2015,04,09,14,53,17.80
2015,04,09,14,54,17.80
2015,04,09,14,55,17.90
2015,04,09,14,56,17.90
2015,04,09,14,57,17.90
2015,04,09,14,58,17.90
2015,04,09,14,59,17.80
2015,04,09,15,00,17.80
2015,04,09,15,01,17.80
2015,04,09,15,02,17.80
2015,04,09,15,03,17.80
2015,04,09,15,04,17.80
2015,04,09,15,05,17.90
2015,04,09,15,06,17.90
2015,04,09,15,07,17.90
2015,04,09,15,08,18.00
2015,04,09,15,09,18.00
2015,04,09,15,10,18.10
2015,04,09,15,11,18.20
2015,04,09,15,12,18.20
2015,04,09,15,13,18.30
2015,04,09,15,14,18.30
2015,04,09,15,15,18.30
2015,04,09,15,16,18.30
2015,04,09,15,17,18.40
2015,04,09,15,18,18.40
2015,04,09,15,19,18.40
2015,04,09,15,20,18.50
2015,04,09,15,21,18.60
2015,04,09,15,22,18.60
2015,04,09,15,23,18.60
2015,04,09,15,24,18.60
2015,04,09,15,25,18.60
2015,04,09,15,26,18.70
2015,04,09,15,27,18.70
2015,04,09,15,28,18.70
2015,04,09,15,29,18.70
2015,04,09,15,30,18.70
2015,04,09,15,31,18.60
2015,04,09,15,32,18.50
2015,04,09,15,33,18.40
2015,04,09,15,34,18.40
2015,04,09,15,35,18.40
2015,04,09,15,36,18.40
2015,04,09,15,37,18.40
2015,04,09,15,38,18.30
2015,04,09,15,39,18.30
2015,04,09,15,40,18.30
2015,04,09,15,41,18.30
2015,04,09,15,42,18.30
2015,04,09,15,43,18.40
2015,04,09,15,44,18.40
2015,04,09,15,45,18.30
2015,04,09,15,46,18.30
2015,04,09,15,47,18.30
2015,04,09,15,48,18.40
2015,04,09,15,49,18.40
2015,04,09,15,50,18.40
2015,04,09,15,51,18.40
2015,04,09,15,52,18.30
2015,04,09,15,53,18.30
2015,04,09,15,54,18.30
2015,04,09,15,55,18.20
2015,04,09,15,56,18.20
2015,04,09,15,57,18.20
2015,04,09,15,58,18.20
2015,04,09,15,59,18.20
2015,04,09,16,00,18.30
2015,04,09,16,01,18.30
2015,04,09,16,02,18.30
2015,04,09,16,03,18.40
2015,04,09,16,04,18.40
2015,04,09,16,05,18.40
2015,04,09,16,06,18.40
2015,04,09,16,07,18.40
2015,04,09,16,08,18.40
2015,04,09,16,09,18.40
2015,04,09,16,10,18.40
2015,04,09,16,11,18.40
2015,04,09,16,12,18.50
2015,04,09,16,13,18.50
2015,04,09,16,14,18.50
2015,04,09,16,15,18.50
2015,04,09,16,16,18.50
2015,04,09,16,17,18.40
2015,04,09,16,18,18.30
2015,04,09,16,19,18.30
2015,04,09,16,20,18.40
2015,04,09,16,21,18.30
2015,04,09,16,22,18.30
2015,04,09,16,23,18.30
2015,04,09,16,24,18.30
2015,04,09,16,25,18.30
2015,04,09,16,26,18.30
2015,04,09,16,27,18.30
2015,04,09,16,28,18.30
2015,04,09,16,29,18.10
2015,04,09,16,30,18.00
2015,04,09,16,31,17.90
2015,04,09,16,32,17.90
2015,04,09,16,33,17.90
2015,04,09,16,34,17.90
2015,04,09,16,35,17.90
2015,04,09,16,36,17.80
2015,04,09,16,37,17.80
2015,04,09,16,38,17.80
2015,04,09,16,39,17.90
2015,04,09,16,40,17.90
2015,04,09,16,41,17.80
2015,04,09,16,42,17.80
2015,04,09,16,43,17.80
2015,04,09,16,44,17.70
2015,04,09,16,45,17.70
2015,04,09,16,46,17.60
2015,04,09,16,47,17.70
2015,04,09,16,48,17.70
2015,04,09,16,49,17.70
2015,04,09,16,50,17.60
2015,04,09,16,51,17.60
2015,04,09,16,52,17.60
2015,04,09,16,53,17.60
2015,04,09,16,54,17.60
2015,04,09,16,55,17.60
2015,04,09,16,56,17.60
2015,04,09,16,57,17.60
2015,04,09,16,58,17.50
2015,04,09,16,59,17.50
2015,04,09,17,00,17.50
2015,04,09,17,01,17.60
2015,04,09,17,02,17.60
2015,04,09,17,03,17.70
2015,04,09,17,04,17.70
2015,04,09,17,05,17.70
2015,04,09,17,06,17.60
2015,04,09,17,07,17.50
2015,04,09,17,08,17.50
2015,04,09,17,09,17.40
2015,04,09,17,10,17.40
2015,04,09,17,11,17.40
2015,04,09,17,12,17.40
2015,04,09,17,13,17.40
2015,04,09,17,14,17.40
2015,04,09,17,15,17.40
2015,04,09,17,16,17.50
2015,04,09,17,17,17.60
2015,04,09,17,18,17.60
2015,04,09,17,19,17.70
2015,04,09,17,20,17.80
2015,04,09,17,21,17.80
2015,04,09,17,22,17.80
2015,04,09,17,23,17.80
2015,04,09,17,24,17.70
2015,04,09,17,25,17.60
2015,04,09,17,26,17.60
2015,04,09,17,27,17.60
2015,04,09,17,28,17.50
2015,04,09,17,29,17.50
2015,04,09,17,30,17.50
2015,04,09,17,31,17.50
2015,04,09,17,32,17.50
2015,04,09,17,33,17.50
2015,04,09,17,34,17.50
2015,04,09,17,35,17.60
2015,04,09,17,36,17.60
2015,04,09,17,37,17.60
2015,04,09,17,38,17.60
2015,04,09,17,39,17.60
2015,04,09,17,40,17.70
2015,04,09,17,41,17.70
2015,04,09,17,42,17.70
2015,04,09,17,43,17.60
2015,04,09,17,44,17.50
2015,04,09,17,45,17.30
2015,04,09,17,46,17.20
2015,04,09,17,47,17.20
2015,04,09,17,48,17.10
2015,04,09,17,49,17.00
2015,04,09,17,50,16.90
2015,04,09,17,51,17.00
2015,04,09,17,52,17.00
2015,04,09,17,53,17.00
2015,04,09,17,54,17.10
2015,04,09,17,55,17.00
2015,04,09,17,56,17.00
2015,04,09,17,57,16.90
2015,04,09,17,58,16.80
2015,04,09,17,59,16.80
2015,04,09,18,00,16.80
2015,04,09,18,01,16.80
2015,04,09,18,02,16.80
2015,04,09,18,03,16.70
2015,04,09,18,04,16.60
2015,04,09,18,05,16.60
2015,04,09,18,06,16.60
2015,04,09,18,07,16.60
2015,04,09,18,08,16.60
2015,04,09,18,09,16.60
2015,04,09,18,10,16.60
2015,04,09,18,11,16.60
2015,04,09,18,12,16.60
2015,04,09,18,13,16.60
2015,04,09,18,14,16.70
2015,04,09,18,15,16.70
2015,04,09,18,16,16.70
2015,04,09,18,17,16.70
2015,04,09,18,18,16.70
2015,04,09,18,19,16.60